TimePDT,TemperatureF,Dew PointF,Humidity,Sea Level PressureIn,VisibilityMPH,Wind Direction,Wind SpeedMPH,Gust SpeedMPH,PrecipitationIn,Events,Conditions,WindDirDegrees,DateUTC
12:53 AM,55.0,26.1,33,29.99,7.0,WNW,6.9,-,N/A,,Clear,300,2013-08-31 07:53:00
1:53 AM,55.9,27.0,33,29.98,8.0,NNW,3.5,-,N/A,,Clear,340,2013-08-31 08:53:00
2:53 AM,51.1,21.9,32,29.98,8.0,ESE,3.5,-,N/A,,Clear,110,2013-08-31 09:53:00
3:53 AM,50.0,27.0,41,29.99,8.0,SE,8.1,-,N/A,,Clear,130,2013-08-31 10:53:00
4:53 AM,50.0,25.0,38,29.99,8.0,NNE,3.5,-,N/A,,Clear,20,2013-08-31 11:53:00
5:53 AM,46.0,24.1,42,30.00,7.0,ESE,3.5,-,N/A,,Clear,110,2013-08-31 12:53:00
6:53 AM,51.1,28.0,41,30.01,7.0,Calm,Calm,-,N/A,,Clear,0,2013-08-31 13:53:00
7:53 AM,54.0,28.0,37,30.04,8.0,Calm,Calm,-,N/A,,Clear,0,2013-08-31 14:53:00
8:53 AM,66.9,28.9,24,30.02,10.0,Calm,Calm,-,N/A,,Clear,0,2013-08-31 15:53:00
9:53 AM,75.9,30.0,19,30.01,10.0,Calm,Calm,-,N/A,,Clear,0,2013-08-31 16:53:00
10:53 AM,84.0,27.0,13,29.98,10.0,Calm,Calm,-,N/A,,Clear,0,2013-08-31 17:53:00
11:53 AM,88.0,30.0,12,29.97,10.0,SW,5.8,-,N/A,,Clear,220,2013-08-31 18:53:00
12:53 PM,90.0,30.9,12,29.95,10.0,Calm,Calm,-,N/A,,Clear,0,2013-08-31 19:53:00
1:53 PM,91.9,30.0,11,29.92,10.0,Calm,Calm,-,N/A,,Clear,0,2013-08-31 20:53:00
2:53 PM,93.0,25.0,9,29.89,10.0,South,4.6,-,N/A,,Clear,190,2013-08-31 21:53:00
3:53 PM,93.9,28.9,10,29.87,10.0,SW,5.8,-,N/A,,Clear,230,2013-08-31 22:53:00
4:53 PM,93.9,28.9,10,29.85,10.0,Variable,3.5,-,N/A,,Clear,0,2013-08-31 23:53:00
5:53 PM,93.9,30.0,10,29.85,10.0,SSE,3.5,-,N/A,,Clear,160,2013-09-01 00:53:00
6:53 PM,89.1,32.0,13,29.84,10.0,East,5.8,-,N/A,,Clear,80,2013-09-01 01:53:00
7:53 PM,79.0,32.0,18,29.86,10.0,East,4.6,-,N/A,,Clear,100,2013-09-01 02:53:00
8:53 PM,73.9,28.0,18,29.86,10.0,North,4.6,-,N/A,,Clear,350,2013-09-01 03:53:00
9:53 PM,73.0,28.0,19,29.86,10.0,ESE,5.8,-,N/A,,Clear,110,2013-09-01 04:53:00
10:53 PM,80.1,36.0,20,29.83,10.0,NW,11.5,-,N/A,,Clear,310,2013-09-01 05:53:00
11:53 PM,79.0,37.0,22,29.84,10.0,Variable,4.6,-,N/A,,Clear,0,2013-09-01 06:53:00